Weather History for Wilmington, NC

Change the Weather History Date:

Tuesday, January 15, 2013

  Actual Average Record
Temperature  
Mean Temperature 65 °F 46 °F  
Max Temperature 76 °F 56 °F 77 °F (1928)
Min Temperature 53 °F 35 °F 18 °F (1948)
Degree Days  
Heating Degree Days 0 19  
Month to date heating degree days 177 285  
Since 1 July heating degree days 1055 1169  
Cooling Degree Days 0 0  
Month to date cooling degree days 4 0  
Year to date cooling degree days 4 0  
Growing Degree Days 14 (Base 50)    
Moisture  
Dew Point 57 °F    
Average Humidity 80    
Maximum Humidity 100    
Minimum Humidity 60    
Precipitation  
Precipitation T in 0.13 in 1.29 in (1962)
Month to date precipitation 0.61 1.81  
Year to date precipitation 0.61 1.81  
Snow  
Snow 0.00 in 0.00 in 5.00 in (1988)
Month to date snowfall 0.0 0.2  
Since 1 July snowfall 0.0 1.0  
Snow Depth 0.00 in    
Sea Level Pressure  
Sea Level Pressure 30.14 in    
Wind  
Wind Speed 5 mph (SE)    
Max Wind Speed 12 mph    
Max Gust Speed 16 mph    
Visibility 4 miles    
Events Fog , Rain    
T = Trace of Precipitation, MM = Missing Value Source: NWS Daily Summary

Daily Weather History Graph

Daily Weather History Graph

Search for Another Location

Airport:

Trip Planner

Search our weather history database for the weather conditions in past years. The results will help you decide how hot, cold, wet, or windy it might be!

Date:

Astronomy

Jan. 15, 2013 Rise Set
Actual Time 7:17 AM EST 5:25 PM EST
Civil Twilight 6:50 AM EST 5:52 PM EST
Nautical Twilight 6:19 AM EST 6:23 PM EST
Astronomical Twilight 5:49 AM EST 6:53 PM EST
Moon 9:35 AM EST (1/15) 9:57 PM EST (1/15)
Length of Visible Light 11h 02m
Length of Day
10h 07m
Waxing Crescent, 19% of the Moon is Illuminated
Jan 15
Waxing Crescent
Jan 18
First Quarter
Jan 26
Full
Feb 3
Last Quarter
Feb 10
New

Hourly Weather History & Observations

Time (EST) Temp. Dew Point Humidity Pressure Visibility Wind Dir Wind Speed Gust Speed Precip Events Conditions
12:53 AM 62.1 °F 59.0 °F 90% 30.17 in 10.0 mi SSW 3.5 mph - N/A   Clear
1:44 AM 59.0 °F 57.2 °F 94% 30.17 in 1.8 mi Calm Calm - N/A   Clear
1:53 AM 59.0 °F 57.0 °F 93% 30.17 in 1.8 mi Calm Calm - N/A   Clear
1:59 AM 59.0 °F 57.2 °F 94% 30.17 in 3.0 mi Calm Calm - N/A   Clear
2:36 AM 57.2 °F 55.4 °F 94% 30.16 in 1.8 mi Calm Calm - N/A   Clear
2:40 AM 57.2 °F 55.4 °F 94% 30.16 in 0.8 mi Calm Calm - N/A   Clear
2:53 AM 55.9 °F 55.0 °F 97% 30.16 in 0.8 mi Calm Calm - N/A   Clear
3:04 AM 57.2 °F 55.4 °F 94% 30.15 in 1.8 mi Calm Calm - N/A   Clear
3:06 AM 57.2 °F 55.4 °F 94% 30.15 in 3.0 mi Calm Calm - N/A   Clear
3:14 AM 57.2 °F 55.4 °F 94% 30.15 in 1.5 mi Calm Calm - N/A   Partly Cloudy
3:16 AM 57.2 °F 55.4 °F 94% 30.15 in 1.0 mi Calm Calm - N/A   Mist
3:23 AM 57.2 °F 55.4 °F 94% 30.15 in 0.5 mi Calm Calm - N/A Fog Fog
3:33 AM 57.2 °F 55.4 °F 94% 30.15 in 0.8 mi Calm Calm - N/A   Mist
3:46 AM 55.4 °F 55.4 °F 100% 30.14 in 0.2 mi Calm Calm - N/A Fog Fog
3:53 AM 55.9 °F 55.0 °F 97% 30.14 in 0.2 mi Calm Calm - N/A Fog Fog
4:07 AM 55.4 °F 53.6 °F 94% 30.14 in 1.0 mi Calm Calm - N/A   Mist
4:09 AM 55.4 °F 53.6 °F 94% 30.14 in 1.5 mi Calm Calm - N/A   Scattered Clouds
4:34 AM 53.6 °F 53.6 °F 100% 30.13 in 4.0 mi Calm Calm - N/A   Clear
4:53 AM 54.0 °F 53.1 °F 97% 30.13 in 4.0 mi Calm Calm - N/A   Mostly Cloudy
4:57 AM 53.6 °F 53.6 °F 100% 30.13 in 1.0 mi Calm Calm - N/A   Mist
5:01 AM 55.4 °F 53.6 °F 94% 30.12 in 0.2 mi Calm Calm - N/A Fog Fog
5:14 AM 53.6 °F 51.8 °F 94% 30.12 in 0.2 mi Calm Calm - N/A Fog Fog
5:53 AM 53.1 °F 53.1 °F 100% 30.12 in 0.2 mi Calm Calm - N/A Fog Fog
6:23 AM 53.6 °F 53.6 °F 100% 30.12 in 0.5 mi Calm Calm - N/A Fog Fog
6:39 AM 53.6 °F 53.6 °F 100% 30.13 in 1.0 mi Calm Calm - N/A   Mist
6:49 AM 55.4 °F 53.6 °F 94% 30.14 in 0.2 mi Calm Calm - N/A Fog Fog
6:53 AM 55.4 °F 53.6 °F 94% 30.14 in 0.2 mi Calm Calm - N/A Fog Fog
7:08 AM 53.6 °F 51.8 °F 94% 30.14 in 0.2 mi Calm Calm - N/A Fog Fog
7:32 AM 53.6 °F 53.6 °F 100% 30.15 in 0.2 mi Calm Calm - N/A Fog Fog
7:53 AM 57.9 °F 55.9 °F 93% 30.15 in 0.2 mi South 3.5 mph - N/A Fog Fog
8:12 AM 60.8 °F 60.8 °F 100% 30.16 in 0.5 mi SSW 3.5 mph - N/A Fog Fog
8:18 AM 62.6 °F 60.8 °F 94% 30.16 in 1.8 mi SSW 3.5 mph - N/A   Mostly Cloudy
8:21 AM 62.6 °F 60.8 °F 94% 30.16 in 3.0 mi SSW 3.5 mph - N/A   Mostly Cloudy
8:29 AM 62.6 °F 62.6 °F 100% 30.16 in 6.0 mi SSW 5.8 mph - N/A   Scattered Clouds
8:53 AM 64.9 °F 64.0 °F 97% 30.17 in 10.0 mi SSW 6.9 mph - N/A   Clear
9:53 AM 72.0 °F 64.0 °F 76% 30.18 in 10.0 mi SW 6.9 mph - N/A   Mostly Cloudy
10:53 AM 73.0 °F 62.1 °F 68% 30.17 in 10.0 mi West 6.9 mph - N/A   Mostly Cloudy
11:53 AM 73.9 °F 61.0 °F 64% 30.14 in 10.0 mi WSW 6.9 mph - N/A   Scattered Clouds
12:53 PM 75.0 °F 61.0 °F 62% 30.12 in 10.0 mi NW 3.5 mph - N/A   Overcast
1:53 PM 71.1 °F 61.0 °F 70% 30.11 in 10.0 mi East 10.4 mph - N/A   Overcast
2:53 PM 64.9 °F 59.0 °F 81% 30.12 in 10.0 mi Variable 5.8 mph - N/A   Overcast
3:53 PM 63.0 °F 57.9 °F 84% 30.12 in 10.0 mi East 6.9 mph - N/A   Overcast
4:53 PM 62.1 °F 57.9 °F 86% 30.12 in 10.0 mi East 5.8 mph - N/A   Overcast
5:13 PM 60.8 °F 57.2 °F 88% 30.13 in 10.0 mi ENE 4.6 mph - N/A   Overcast
5:22 PM 60.8 °F 57.2 °F 88% 30.13 in 9.0 mi ENE 5.8 mph - N/A   Overcast
5:40 PM 60.8 °F 57.2 °F 88% 30.13 in 9.0 mi East 6.9 mph - N/A   Overcast
5:53 PM 60.1 °F 57.0 °F 90% 30.13 in 9.0 mi East 6.9 mph - N/A   Overcast
6:53 PM 60.1 °F 57.9 °F 93% 30.14 in 6.0 mi East 8.1 mph - N/A   Overcast
7:09 PM 59.0 °F 57.2 °F 94% 30.15 in 6.0 mi East 10.4 mph - N/A   Overcast
7:53 PM 57.9 °F 55.9 °F 93% 30.14 in 6.0 mi East 9.2 mph - N/A   Overcast
8:53 PM 57.0 °F 55.0 °F 93% 30.13 in 5.0 mi East 4.6 mph - 0.00 in   Overcast
9:53 PM 57.0 °F 55.9 °F 96% 30.11 in 2.5 mi East 3.5 mph - N/A   Overcast
10:14 PM 57.2 °F 55.4 °F 94% 30.11 in 1.2 mi East 3.5 mph - N/A   Overcast
10:30 PM 57.2 °F 55.4 °F 94% 30.10 in 2.0 mi Calm Calm - 0.00 in Rain Light Rain
10:53 PM 57.9 °F 55.9 °F 93% 30.09 in 2.0 mi ESE 3.5 mph - 0.00 in   Overcast
11:11 PM 57.2 °F 57.2 °F 100% 30.08 in 3.0 mi ESE 4.6 mph - N/A   Overcast
11:19 PM 59.0 °F 57.2 °F 94% 30.08 in 1.8 mi SE 6.9 mph - N/A   Overcast
11:25 PM 59.0 °F 57.2 °F 94% 30.08 in 0.8 mi SE 4.6 mph - N/A   Overcast
11:46 PM 59.0 °F 57.2 °F 94% 30.07 in 0.2 mi SE 4.6 mph - N/A Fog Fog
11:53 PM 59.0 °F 57.9 °F 96% 30.07 in 0.2 mi ESE 5.8 mph - N/A Fog Fog